STARLINK-34338

Satellite information

Favourite Embed

Satellite Type and Status

PAYLOADIN ORBIT

Key statistics

Satellite STARLINK-34338 at a glance.

Uptime

200

Days in orbit

Revolutions

≈ 15.1

Per day

Orbit

SSO

Sun Synchronous Orbit

Inclination

97.6

Latest

Satellite identification and parameters

Extended collection of information and parameters for STARLINK-34338.

Object identification

Identified? True

Debris? False

Object name: STARLINK-34338

International designator: 2025-112F

Object number (NORAD): 64151

Object ID (CCSDS): 64151

Country: UNITED STATES OF AMERICA (US)

Current information (Y/N): Y

RCS size: LARGE

Orbital parameters

Period: 95.638 minutes

Inclination: 97.604 deg

SMA: 6927.568 km

Apoapsis: 550.359 km

Periapsis: 548.507 km

RAAN: 35.2479 deg

Eccentricy: 0.00013366

Argument of periapsis: 151.8121 deg

Mean anomaly: 208.3179 deg

Mean motion: 15.05676017 rev/day

Mean motion (dot): 0.00007928 rev/day2

B* drag term: 0.00055262715 1/REarth

Two-line elements (TLE)

Creation date: Dec. 12, 2025, 10:14 a.m.

Reference frame: TEME

Reference center: EARTH

Epoch: Dec. 12, 2025, 2:26 a.m. UTC

TLE line 0: 0 STARLINK-34338

TLE line 1: 1 64151U 25112F 25346.10170273 .00007928 00000-0 55263-3 0 9999

TLE line 2: 2 64151 97.6040 35.2479 0001337 151.8121 208.3179 15.05676017 30133

Live tracking on map

Real-time ground track for satellite STARLINK-34338.

In-orbit conjunctions

There are no conjunctions computed for STARLINK-34338, at the moment. Check back to stay up to date, as we update our databases every day.

Go to all conjunctions

Associated space launch

A batch of 24 satellites for the Starlink mega-constellation - SpaceX's project for space-based Internet communication system.

STARLINK-34338 was lifted into orbit during the mission ‘Falcon 9 Block 5 | Starlink Group 17-1’, on board a Falcon 9 space rocket.

The launch took place on May 27, 2025, 4:57 p.m. from Space Launch Complex 4E.

For more information about the launch, click the button.

Launch to space Falcon 9 Block 5 | Starlink Group 17-1
Falcon 9 Block 5 | Starlink Group 17-1

Agency: SpaceX

Status: Launch Successful

Launch date: May 27, 2025, 4:57 p.m. UTC

Rocket: Falcon 9

Launch pad: Space Launch Complex 4E

Location: Vandenberg SFB, CA, USA

...

Latest news about this satellite

News about space launch
Live coverage: SpaceX to launch 24 Starlink satellites to polar orbit from California

The mission will be SpaceX’s 480th Falcon 9 rocket launch to date. Launch teams are targeting a liftoff from Space Launch Complex 4 East at 9:14 a.m. PDT (12:14 p.m. EDT, 1614 UTC).

News about space launch
Launch Roundup: SpaceX to start new Starlink shell; China, Russia to launch unknown payloads

This week, SpaceX will begin building a new shell for its Starlink constellation, launching from… The post Launch Roundup: SpaceX to start new Starlink shell; China, Russia to launch unknown payloads appeared first on NASASpaceFlight.com.


Newsletter sign-up

Weekly statistics, charts and insights to help you stay on top of the space industry.